When you browse on this site, cookies collect data to enhance your experience and personalize the content and advertising you see.
Visit our Privacy Policy to learn more. By continuing to use the site, you agree to this use of cookies and data.
  • In Lithuania
  • List of Countries
  • For 7 days
  • Water Temperature
  • Weather Map
  • Weather Widgets
  • user-avatar
    Login

    Hourly Weather Mostar

    Today, 22 September, Sunday

    Time Temperature Precipitation Wind Pressure Humidity
    00:00 +15°C° 0 mm 1 mps 759 mmHg 57%
    01:00 +15°C° 0 mm 1 mps 759 mmHg 57%
    02:00 +15°C° 0 mm 1 mps 759 mmHg 57%
    03:00 +15°C° 0 mm 1 mps 759 mmHg 56%
    04:00 +15°C° 0 mm 1 mps 758 mmHg 56%
    05:00 +16°C° 0 mm 1 mps 758 mmHg 55%
    06:00 +16°C° 0 mm 1 mps 758 mmHg 54%
    07:00 +17°C° 0 mm 2 mps 758 mmHg 52%
    08:00 +19°C° 0 mm 2 mps 758 mmHg 46%
    09:00 +21°C° 0 mm 2 mps 758 mmHg 40%
    10:00 +24°C° 0 mm 2 mps 758 mmHg 34%
    11:00 +25°C° 0 mm 2 mps 758 mmHg 34%
    12:00 +25°C° 0 mm 2 mps 757 mmHg 35%
    13:00 +25°C° 0 mm 4 mps 757 mmHg 35%
    14:00 +25°C° 0 mm 3 mps 756 mmHg 37%
    15:00 +24°C° 0 mm 2 mps 756 mmHg 39%
    16:00 +24°C° 0 mm 2 mps 756 mmHg 40%
    17:00 +23°C° 0 mm 2 mps 756 mmHg 43%
    18:00 +22°C° 0 mm 1 mps 756 mmHg 45%
    19:00 +21°C° 0 mm 1 mps 756 mmHg 47%
    20:00 +20°C° 0 mm 2 mps 756 mmHg 47%
    21:00 +20°C° 0 mm 2 mps 756 mmHg 46%
    22:00 +20°C° 0 mm 2 mps 756 mmHg 45%
    23:00 +20°C° 0 mm 2 mps 755 mmHg 45%

    Tomorrow, 23 September, Monday

    Time Temperature Precipitation Wind Pressure Humidity
    00:00 +20°C° 0 mm 2 mps 755 mmHg 45%
    01:00 +20°C° 0 mm 2 mps 755 mmHg 44%
    02:00 +19°C° 0.2 mm 2 mps 755 mmHg 51%
    03:00 +18°C° 0.2 mm 3 mps 754 mmHg 57%
    04:00 +18°C° 0.2 mm 3 mps 754 mmHg 64%
    05:00 +18°C° 0.5 mm 3 mps 754 mmHg 69%
    06:00 +17°C° 0.5 mm 3 mps 754 mmHg 74%
    07:00 +17°C° 0.5 mm 2 mps 753 mmHg 79%
    08:00 +18°C° 0.9 mm 2 mps 753 mmHg 81%
    09:00 +18°C° 0.9 mm 2 mps 753 mmHg 82%
    10:00 +18°C° 0.9 mm 2 mps 753 mmHg 84%
    11:00 +19°C° 0.6 mm 2 mps 753 mmHg 85%
    12:00 +19°C° 0.6 mm 2 mps 753 mmHg 86%
    13:00 +19°C° 0.6 mm 2 mps 752 mmHg 86%
    14:00 +20°C° 0.2 mm 2 mps 752 mmHg 86%
    15:00 +20°C° 0.2 mm 2 mps 752 mmHg 85%
    16:00 +20°C° 0.2 mm 2 mps 751 mmHg 85%
    17:00 +20°C° 0.4 mm 2 mps 751 mmHg 87%
    18:00 +20°C° 0.4 mm 1 mps 751 mmHg 90%
    19:00 +20°C° 0.4 mm 1 mps 751 mmHg 93%
    20:00 +20°C° 1.3 mm 1 mps 751 mmHg 93%
    21:00 +19°C° 1.3 mm 2 mps 751 mmHg 94%
    22:00 +19°C° 1.3 mm 2 mps 751 mmHg 94%
    23:00 +20°C° 1 mm 1 mps 751 mmHg 94%

    Day after tomorrow, 24 September, Tuesday

    Time Temperature Precipitation Wind Pressure Humidity
    00:00 +20°C° 1 mm 1 mps 751 mmHg 93%
    01:00 +20°C° 1 mm 1 mps 751 mmHg 92%
    02:00 +19°C° 0 mm 1 mps 751 mmHg 91%
    03:00 +19°C° 0 mm 1 mps 750 mmHg 91%
    04:00 +18°C° 0 mm 1 mps 750 mmHg 90%
    05:00 +19°C° 0 mm 1 mps 750 mmHg 89%
    06:00 +19°C° 0 mm 1 mps 751 mmHg 87%
    07:00 +19°C° 0 mm 1 mps 751 mmHg 86%
    08:00 +21°C° 0 mm 1 mps 751 mmHg 79%
    09:00 +23°C° 0 mm 1 mps 751 mmHg 73%
    10:00 +24°C° 0 mm 1 mps 751 mmHg 66%
    11:00 +25°C° 0.1 mm 1 mps 751 mmHg 63%
    12:00 +25°C° 0.1 mm 1 mps 751 mmHg 59%
    13:00 +26°C° 0.1 mm 2 mps 751 mmHg 56%
    14:00 +25°C° 0.1 mm 2 mps 751 mmHg 59%
    15:00 +25°C° 0.1 mm 2 mps 751 mmHg 62%
    16:00 +24°C° 0.1 mm 2 mps 751 mmHg 65%
    17:00 +23°C° 0.1 mm 2 mps 751 mmHg 69%
    18:00 +21°C° 0.1 mm 2 mps 751 mmHg 73%
    19:00 +19°C° 0.1 mm 2 mps 751 mmHg 77%
    20:00 +19°C° 0 mm 2 mps 752 mmHg 79%
    21:00 +18°C° 0 mm 2 mps 752 mmHg 80%
    22:00 +17°C° 0 mm 2 mps 752 mmHg 82%
    23:00 +17°C° 0 mm 2 mps 752 mmHg 82%

    25 September, Wednesday

    Time Temperature Precipitation Wind Pressure Humidity
    00:00 +18°C° 0 mm 1 mps 752 mmHg 81%
    01:00 +16°C° 0 mm 1 mps 752 mmHg 81%
    02:00 +16°C° 0 mm 1 mps 752 mmHg 81%
    03:00 +16°C° 0 mm 1 mps 751 mmHg 82%
    04:00 +16°C° 0 mm 1 mps 751 mmHg 82%
    05:00 +18°C° 0 mm 1 mps 751 mmHg 80%
    06:00 +18°C° 0 mm 1 mps 751 mmHg 78%
    07:00 +19°C° 0 mm 1 mps 751 mmHg 76%
    08:00 +20°C° 0 mm 1 mps 752 mmHg 72%
    09:00 +22°C° 0 mm 1 mps 752 mmHg 68%
    10:00 +24°C° 0 mm 1 mps 752 mmHg 64%
    11:00 +24°C° 0 mm 1 mps 752 mmHg 64%
    12:00 +24°C° 0 mm 2 mps 751 mmHg 63%
    13:00 +25°C° 0 mm 2 mps 751 mmHg 63%
    14:00 +24°C° 0.1 mm 2 mps 751 mmHg 66%
    15:00 +24°C° 0.1 mm 2 mps 751 mmHg 69%
    16:00 +24°C° 0.1 mm 2 mps 751 mmHg 72%
    17:00 +22°C° 0 mm 1 mps 751 mmHg 78%
    18:00 +21°C° 0 mm 1 mps 751 mmHg 84%
    19:00 +20°C° 0 mm 1 mps 751 mmHg 90%
    20:00 +19°C° 0 mm 1 mps 752 mmHg 91%
    21:00 +19°C° 0 mm 1 mps 752 mmHg 92%
    22:00 +19°C° 0 mm 1 mps 752 mmHg 92%
    23:00 +19°C° 0.1 mm 1 mps 752 mmHg 92%

    26 September, Thursday

    Time Temperature Precipitation Wind Pressure Humidity
    00:00 +19°C° 0.1 mm 1 mps 752 mmHg 92%
    01:00 +19°C° 0.1 mm 1 mps 752 mmHg 92%
    02:00 +18°C° 1.3 mm 2 mps 752 mmHg 93%
    03:00 +18°C° 1.3 mm 2 mps 752 mmHg 94%
    04:00 +18°C° 1.3 mm 2 mps 752 mmHg 95%
    05:00 +18°C° 0.1 mm 2 mps 752 mmHg 94%
    06:00 +19°C° 0.1 mm 1 mps 752 mmHg 92%
    07:00 +19°C° 0.1 mm 1 mps 753 mmHg 91%
    08:00 +20°C° 0 mm 1 mps 753 mmHg 85%
    09:00 +22°C° 0 mm 1 mps 754 mmHg 79%
    10:00 +23°C° 0 mm 1 mps 754 mmHg 74%
    11:00 +23°C° 0.2 mm 1 mps 754 mmHg 72%
    12:00 +24°C° 0.2 mm 1 mps 754 mmHg 70%
    13:00 +24°C° 0.2 mm 2 mps 754 mmHg 69%
    14:00 +24°C° 0.4 mm 1 mps 754 mmHg 72%
    15:00 +23°C° 0.4 mm 1 mps 754 mmHg 75%
    16:00 +23°C° 0.4 mm 1 mps 754 mmHg 77%
    17:00 +22°C° 0.1 mm 1 mps 755 mmHg 82%
    18:00 +20°C° 0.1 mm 1 mps 755 mmHg 86%
    19:00 +19°C° 0.1 mm 1 mps 756 mmHg 90%
    20:00 +19°C° 0 mm 1 mps 756 mmHg 90%
    21:00 +18°C° 0 mm 1 mps 756 mmHg 89%
    22:00 +17°C° 0 mm 2 mps 757 mmHg 89%
    23:00 +17°C° 0 mm 2 mps 757 mmHg 88%

    27 September, Friday

    Time Temperature Precipitation Wind Pressure Humidity
    00:00 +16°C° 0 mm 2 mps 757 mmHg 87%
    01:00 +16°C° 0 mm 2 mps 757 mmHg 86%
    02:00 +15°C° 0 mm 2 mps 757 mmHg 85%
    03:00 +15°C° 0 mm 2 mps 757 mmHg 84%
    04:00 +15°C° 0 mm 2 mps 757 mmHg 83%
    05:00 +15°C° 0 mm 2 mps 757 mmHg 81%
    06:00 +16°C° 0 mm 2 mps 756 mmHg 79%
    07:00 +16°C° 0 mm 2 mps 756 mmHg 76%
    08:00 +18°C° 0 mm 2 mps 757 mmHg 68%
    09:00 +22°C° 0 mm 1 mps 757 mmHg 60%
    10:00 +24°C° 0 mm 1 mps 757 mmHg 51%
    11:00 +25°C° 0 mm 1 mps 757 mmHg 48%
    12:00 +26°C° 0 mm 1 mps 756 mmHg 45%
    13:00 +27°C° 0 mm 1 mps 756 mmHg 42%
    14:00 +26°C° 0 mm 1 mps 756 mmHg 45%
    15:00 +26°C° 0 mm 1 mps 756 mmHg 49%
    16:00 +25°C° 0 mm 1 mps 755 mmHg 52%
    17:00 +23°C° 0 mm 1 mps 756 mmHg 59%
    18:00 +21°C° 0 mm 1 mps 756 mmHg 65%
    19:00 +18°C° 0 mm 0 mps 756 mmHg 72%
    20:00 +17°C° 0 mm 0 mps 756 mmHg 72%
    21:00 +19°C° 0 mm 1 mps 756 mmHg 72%
    22:00 +19°C° 0 mm 1 mps 756 mmHg 72%
    23:00 +19°C° 0 mm 1 mps 756 mmHg 72%
    Show more